Погода в Даду

Пакистан     26°43′49″N   67°46′13″E
темп.,
°C
ветер,
м/с
пор.,
м/с
влажн.,
%
обл.,
%
осадки,
мм/ч
давл.,
гПа
погр.,
м
25 февраля, чт
чт2523:00+24ююз34360 0.0 101124
02:00+23зюз45360 0.0 101068
05:00+22зюз34480 0.0 101039
08:00+24з34420 0.0 1013103
11:00+33сз32200 0.0 1013729
14:00+37зюз34120 0.0 10092751
17:00+37юз88100 0.0 10073580
20:00+29юз511220 0.0 1009187
26 февраля, пт
пт2623:00+26зюз45280 0.0 101077
02:00+24юз45370 0.0 100855
05:00+24зюз45420 0.0 100778
08:00+25зюз474111 0.0 1010138
11:00+34з58185 0.0 10101520
14:00+37з710130 0.0 10072710
17:00+36сз68140 0.0 10062155
20:00+24с22290 0.0 100824
27 февраля, сб
сб2723:00+21ссз12360 0.0 101024
02:00+19с12400 0.0 100923
05:00+18всв23410 0.0 100923
08:00+20вюв12350 0.0 101133
11:00+28ююз12230 0.0 10121024
14:00+32з35190 0.0 10082063
17:00+33ссз25180 0.0 10061644
20:00+23ссв23280 0.0 100837
28 февраля, вс
вс2823:00+21ссз34190 0.0 100936
02:00+18ссв34230 0.0 100923
05:00+14ссв22250 0.0 100923
08:00+17ссв12240 0.0 101242
11:00+27сз11110 0.0 1012776
14:00+31зсз2380 0.0 10091463
17:00+32ссз2380 0.0 10081743
20:00+19в01350 0.0 101024
1 марта, пн
пн123:00+18с34100 0.0 101241
02:00+13зсз11140 0.0 101223
05:00+13с11350 0.0 101223
08:00+18ссв22130 0.0 101532
11:00+28ссз2370 0.0 1016966
14:00+32ссз2150 0.0 10132108
17:00+32з4250 0.0 10121410
20:00+20сз22320 0.0 101424